{"data":{"norad_id":54127,"intl_designator":"2022-138Q","name":"ONEWEB-0509","alt_names":[],"object_type":"PAYLOAD","status":"ACTIVE","operator":null,"country":"UK","launch_date":"2022-10-22","launch_site_code":"SRILR","launch_vehicle":null,"mission":null,"orbit_class":"UNKNOWN","rcs_meters":null,"size_class":null,"mass_kg":null,"dimensions":null,"purposes":["comms"],"wikipedia_slug":null,"has_3d_model":false,"image_url":null,"decayed_at":null,"tle_current":{"epoch":"2026-09-19T18:53:26.220192Z","epoch_age_seconds":87439,"freshness":"FRESH","line1":"1 54127U 22138Q   26262.78710903 -.00000008  00000+0 -53325-4 0  9999","line2":"2 54127  87.9111 286.1224 0001865  88.8123 271.3223 13.19724433189288","mean_motion":13.19724433,"eccentricity":0.0001865,"inclination_deg":87.9111,"raan_deg":286.1224,"arg_perigee_deg":88.8123,"mean_anomaly_deg":271.3223,"bstar":-5.3325e-5,"rev_number":18928,"period_min":109.11368797853,"perigee_km":1184.3620493155,"apogee_km":1187.1833876405,"semimajor_km":7563.909718478,"source":"CELESTRAK","updated_at":"2026-09-20T09:00:44.717941Z"}}}